Monticello Municipal
Sunday 1:15 PM
Temperature70° (70°/45°)
Dew Point46°
Relative Humidity43
%
Visibility10
mi
Pressure1026.4
mb
Wind Direction
Wind SpeedCalm
Precipitation Today0.00"

Last 30 Observations

Time PresWx Temp DP Feels RH% Vsby Pressure Ceiling Direction Speed 1h Precip
12:55 PM 70° 46° 43
%
10
mi
1026.4
mb
S
180°
8
mph
0.00"
12:35 PM 68° 46° 46
%
10
mi
1026.4
mb
Variable 3
mph
0.00"
12:15 PM 68° 46° 46
%
10
mi
1026.8
mb
Variable 6
mph
0.00"
11:55 AM 66° 48° 52
%
10
mi
1027.1
mb
Variable 7
mph
0.00"
11:35 AM 66° 50° 56
%
10
mi
1027.1
mb
Variable 6
mph
0.00"
11:15 AM 64° 50° 60
%
10
mi
1027.4
mb
SE
130°
7
mph
0.00"
10:55 AM 63° 52° 68
%
10
mi
1027.4
mb
SSE
160°
8
mph
(G15)
0.00"
10:35 AM 63° 52° 68
%
10
mi
1027.8
mb
SSE
160°
8
mph
0.00"
10:15 AM 61° 50° 68
%
10
mi
1027.8
mb
ESE
120°
8
mph
0.00"
9:55 AM 61° 50° 68
%
10
mi
1027.8
mb
SE
130°
9
mph
0.00"
9:35 AM 59° 50° 72
%
10
mi
1028.1
mb
ESE
120°
9
mph
0.00"
9:15 AM 59° 48° 67
%
10
mi
1028.1
mb
SE
130°
10
mph
0.00"
8:55 AM 57° 48° 72
%
10
mi
1027.8
mb
SSE
150°
13
mph
0.00"
8:35 AM 57° 48° 72
%
10
mi
1027.4
mb
SE
140°
8
mph
0.00"
8:15 AM 55° 48° 77
%
10
mi
1027.4
mb
ESE
120°
8
mph
0.00"
7:55 AM 54° 50° 88
%
10
mi
1027.4
mb
SE
130°
6
mph
0.00"
7:35 AM 54° 48° 82
%
10
mi
1027.1
mb
ESE
120°
9
mph
0.00"
7:15 AM 52° 48° 87
%
10
mi
1027.1
mb
ESE
110°
7
mph
0.00"
6:55 AM 52° 48° 87
%
10
mi
1027.1
mb
E
90°
6
mph
0.00"
6:35 AM 50° 48° 94
%
10
mi
1026.4
mb
Variable 7
mph
0.00"
6:15 AM 46° 46° 43°100
%
10
mi
1026.4
mb
Variable 6
mph
0.00"
5:55 AM 45° 45° 100
%
10
mi
1026.1
mb
Calm 0.00"
5:35 AM 45° 45° 100
%
10
mi
1025.7
mb
Calm 0.00"
5:15 AM 45° 45° 100
%
8
mi
1025.7
mb
Calm 0.00"
4:55 AM 46° 46° 100
%
10
mi
1025.7
mb
Calm 0.00"
4:35 AM 46° 46° 100
%
10
mi
1025.4
mb
Calm 0.00"
4:15 AM 46° 46° 100
%
9
mi
1025.4
mb
Calm 0.00"
3:55 AM 46° 46° 100
%
10
mi
1025.4
mb
Calm 0.00"
3:35 AM 48° 48° 100
%
10
mi
1025.4
mb
Calm 0.00"
3:15 AM 48° 48° 100
%
10
mi
1025.4
mb
Calm 0.00"